Aspen, CO

10:36 AM MDT on May 26, 2017 (GMT -0600)
Aspen-Pitkin County / Sardy Field

Weather History for KASE - September, 2013

Change the Weather History Date:

Thursday, September 5, 2013

  Actual Average Record
Temperature  
Mean Temperature 68 °F 57 °F  
Max Temperature 85 °F 72 °F 85 °F (2013)
Min Temperature 50 °F 42 °F 30 °F (1999)
Degree Days  
Heating Degree Days 0 8  
Month to date heating degree days 1 37  
Since 1 July heating degree days 136 233  
Cooling Degree Days 3 0  
Month to date cooling degree days 8 0  
Year to date cooling degree days 68 39  
Growing Degree Days 16 (Base 50)    
Moisture  
Dew Point 46 °F    
Average Humidity 53    
Maximum Humidity 83    
Minimum Humidity 23    
Precipitation  
Precipitation T in 0.06 in 0.50 in (1982)
Month to date precipitation T 0.25  
Year to date precipitation 9.96 11.71  
Sea Level Pressure  
Sea Level Pressure 30.11 in    
Wind  
Wind Speed 5 mph (WNW)    
Max Wind Speed 20 mph    
Max Gust Speed 24 mph    
Visibility 10 miles    
Events Rain , Thunderstorm    
T = Trace of Precipitation, MM = Missing Value Source: NWS Daily Summary

Daily Weather History Graph

Daily Weather History Graph

Search for Another Location

Airport or City:

Trip Planner

Search our weather history database for the weather conditions in past years. The results will help you decide how hot, cold, wet, or windy it might be!

Date:

Astronomy

Sep. 05, 2013 Rise Set
Actual Time 6:39 AM MDT 7:31 PM MDT
Civil Twilight 6:12 AM MDT 7:58 PM MDT
Nautical Twilight 5:40 AM MDT 8:30 PM MDT
Astronomical Twilight 5:06 AM MDT 9:04 PM MDT
Moon 6:54 AM MDT (9/5) 7:25 PM MDT (9/5)
Length of Visible Light 13h 45m
Length of Day
12h 51m
New Moon, 0% of the Moon is Illuminated
Sep 5
New Moon
Sep 12
First Quarter
Sep 19
Full
Sep 26
Last Quarter
Oct 4
New

Hourly Weather History & Observations

Time (MDT) Temp. Dew Point Humidity Pressure Visibility Wind Dir Wind Speed Gust Speed Precip Events Conditions
12:53 AM 55.9 °F 46.9 °F 72% 30.06 in 10.0 mi Calm Calm - N/A   Clear
1:53 AM 55.9 °F 45.0 °F 67% 30.05 in 10.0 mi South 4.6 mph - N/A   Partly Cloudy
2:53 AM 53.1 °F 45.0 °F 74% 30.05 in 10.0 mi South 6.9 mph - N/A   Partly Cloudy
3:53 AM 51.1 °F 44.1 °F 77% 30.08 in 10.0 mi South 6.9 mph - N/A   Clear
4:53 AM 51.1 °F 44.1 °F 77% 30.10 in 10.0 mi SSW 4.6 mph - N/A   Clear
5:53 AM 51.1 °F 44.1 °F 77% 30.12 in 10.0 mi Calm Calm - N/A   Mostly Cloudy
6:53 AM 53.1 °F 45.0 °F 74% 30.14 in 10.0 mi Calm Calm - N/A   Scattered Clouds
7:53 AM 54.0 °F 46.0 °F 75% 30.14 in 10.0 mi ESE 3.5 mph - N/A   Mostly Cloudy
8:53 AM 59.0 °F 46.9 °F 64% 30.13 in 10.0 mi Calm Calm - N/A   Scattered Clouds
9:53 AM 68.0 °F 46.0 °F 45% 30.10 in 10.0 mi Calm Calm - N/A   Partly Cloudy
10:53 AM 75.0 °F 45.0 °F 34% 30.06 in 10.0 mi NNW 4.6 mph - N/A   Scattered Clouds
11:53 AM 78.1 °F 43.0 °F 29% 30.04 in 10.0 mi Calm Calm - N/A   Clear
12:53 PM 81.0 °F 43.0 °F 26% 30.01 in 10.0 mi NNE 8.1 mph - N/A   Clear
1:53 PM 82.9 °F 43.0 °F 24% 29.98 in 10.0 mi NW 12.7 mph 21.9 mph N/A   Mostly Cloudy
2:53 PM 82.0 °F 43.0 °F 25% 29.97 in 10.0 mi SW 8.1 mph - N/A   Clear
3:53 PM 82.0 °F 41.0 °F 23% 29.96 in 10.0 mi Variable 5.8 mph 18.4 mph N/A   Scattered Clouds
4:53 PM 79.0 °F 45.0 °F 30% 29.96 in 10.0 mi North 12.7 mph 23.0 mph N/A   Scattered Clouds
5:36 PM 80.6 °F 44.6 °F 28% 30.34 in 10.0 mi NW 13.8 mph 24.2 mph N/A Thunderstorm Thunderstorm
5:53 PM 80.1 °F 44.1 °F 28% 29.96 in 10.0 mi NNW 13.8 mph - N/A Thunderstorm Thunderstorm
6:53 PM 73.9 °F 43.0 °F 33% 29.99 in 10.0 mi East 13.8 mph 23.0 mph N/A Thunderstorm Thunderstorm
6:58 PM 73.4 °F 44.6 °F 36% 30.35 in 10.0 mi ENE 13.8 mph 24.2 mph N/A Thunderstorm Thunderstorm
7:53 PM 69.1 °F 45.0 °F 42% 30.03 in 10.0 mi Variable 3.5 mph - N/A   Clear
8:17 PM 68.0 °F 44.6 °F 43% 30.40 in 10.0 mi Calm Calm - N/A Thunderstorm Thunderstorm
8:53 PM 66.0 °F 48.0 °F 52% 30.06 in 10.0 mi Calm Calm - 0.00 in   Partly Cloudy
9:00 PM 64.4 °F 48.2 °F 56% 30.42 in 10.0 mi NNW 4.6 mph - 0.00 in Rain , Thunderstorm Light Rain
9:24 PM 62.6 °F 51.8 °F 68% 30.41 in 10.0 mi SW 9.2 mph - 0.00 in   Mostly Cloudy
9:53 PM 63.0 °F 50.0 °F 63% 30.04 in 10.0 mi SW 5.8 mph - 0.00 in   Partly Cloudy
10:53 PM 59.0 °F 51.1 °F 75% 30.04 in 10.0 mi North 3.5 mph - N/A   Clear
11:53 PM 54.0 °F 48.9 °F 83% 30.08 in 10.0 mi Calm Calm - N/A   Clear